This demonstration page uses our WeatherBlox Daily Observations layout. Learn more.

Left ArrowRight Arrow

41.86663, -103.66717

Hourly Observations for September 28, 2022

Temp ( °F °C ) Dew Point ( °F °C ) Humidity (%) Winds ( mph kmh ) Pressure ( in mb ) Visibility ( mi km ) Precip ( " mm )
12:53 am 00:53 Clear 54 12.2 39 3.9 57 57 ESE 10 17 30.20 1023 10 16 0.00 0.00
1:53 am 01:53 Clear 52 11.1 40 4.4 63 63 ESE 10 17 30.20 1023 10 16 0.00 0.00
2:53 am 02:53 Clear 52 11.1 40 4.4 63 63 E 9 15 30.19 1023 10 16 0.00 0.00
3:53 am 03:53 Clear 52 11.1 40 4.4 63 63 E 10 17 30.19 1022 10 16 0.00 0.00
4:53 am 04:53 Clear 51 10.6 40 4.4 65 65 E 12 19 30.19 1022 10 16 0.00 0.00
5:53 am 05:53 Clear 50 10 40 4.4 68 68 E 10 17 30.19 1023 10 16 0.00 0.00
6:53 am 06:53 Sunny 49 9.4 40 4.4 71 71 ESE 10 17 30.22 1023 10 16 0.00 0.00
7:53 am 07:53 Sunny 52 11.1 40 4.4 63 63 ESE 13 20 30.22 1023 10 16 0.00 0.00
8:53 am 08:53 Sunny 57 13.9 41 5 55 55 ESE 15 24 30.21 1023 10 16 0.00 0.00
9:53 am 09:53 Sunny 63 17.2 43 6.1 48 48 ESE 15 24 30.19 1022 10 16 0.00 0.00
10:53 am 10:53 Sunny 70 21.1 44 6.7 39 39 SE 17 28 30.17 1022 10 16 0.00 0.00
11:53 am 11:53 Sunny 80 26.7 44 6.7 28 28 SE 15 24 30.13 1020 10 16 0.00 0.00
12:53 pm 12:53 Sunny 85 29.4 43 6.1 23 23 SE 18 30 30.09 1019 10 16 0.00 0.00
1:53 pm 13:53 Sunny 86 30 43 6.1 22 22 SSE 17 28 30.07 1018 10 16 0.00 0.00
2:53 pm 14:53 Sunny 87 30.6 42 5.6 21 21 S 15 24 30.04 1017 10 16 0.00 0.00
3:53 pm 15:53 Sunny 88 31.1 40 4.4 19 19 SSE 14 22 30.02 1017 10 16 0.00 0.00
4:53 pm 16:53 Sunny 86 30 38 3.3 18 18 SSE 12 19 30.01 1016 10 16 0.00 0.00
5:53 pm 17:53 Sunny 82 27.8 44 6.7 26 26 SE 13 20 30.02 1017 10 16 0.00 0.00
6:53 pm 18:53 Clear 75 23.9 45 7.2 34 34 ESE 15 24 30.04 1017 10 16 0.00 0.00
7:53 pm 19:53 Clear 72 22.2 44 6.7 37 37 ESE 15 24 30.06 1018 10 16 0.00 0.00
8:53 pm 20:53 Clear 73 22.8 43 6.1 34 34 SE 16 26 30.07 1018 10 16 0.00 0.00
9:53 pm 21:53 Clear 71 21.7 43 6.1 36 36 SSE 14 22 30.06 1018 10 16 0.00 0.00
10:53 pm 22:53 Clear 67 19.4 43 6.1 42 42 E 12 19 30.07 1018 10 16 0.00 0.00
11:53 pm 23:53 Clear 65 18.3 44 6.7 47 47 E 13 20 30.04 1017 10 16 0.00 0.00

Powered by AerisWeather